Location: Arthez
(43.0833°N, 0.2500°W)
Time: 05:05:11
(UTC+00:00)

NOSS 3-1 (A) - Visible Passes

Search period start: 09 December 2023 00:00
Search period end: 19 December 2023 00:00
Orbit: 677 x 1534 km, 63.4° (Epoch: 03 November)

Date Brightness Start Highest point End Pass type
(mag) Time Alt. Az. Time Alt. Az. Time Alt. Az.
09 Dec 5.9 03:23:18 13° NE 03:23:18 13° NE 03:23:51 10° NE visible
09 Dec 4.8 05:10:44 20° NNW 05:10:44 20° NNW 05:14:28 10° NNE visible
10 Dec 5.2 04:27:17 19° N 04:27:17 19° N 04:29:34 10° NNE visible
10 Dec 5.3 06:15:02 10° NNW 06:17:41 13° N 06:20:32 10° NNE visible
11 Dec 5.7 03:43:47 14° NNE 03:43:47 14° NNE 03:44:39 10° NNE visible
11 Dec 5.2 05:31:13 14° NNW 05:31:49 14° NNW 05:35:15 10° NNE visible
12 Dec 5.3 04:47:42 16° N 04:47:42 16° N 04:50:13 10° NNE visible
12 Dec 5.5 06:37:10 10° NNW 06:39:56 13° N 06:42:54 10° NNE visible
13 Dec 5.6 04:04:09 14° NNE 04:04:09 14° NNE 04:05:17 10° NNE visible
13 Dec 5.4 05:51:34 10° NNW 05:54:00 12° N 05:56:43 10° NNE visible
14 Dec 5.4 05:08:00 13° N 05:08:06 13° N 05:11:10 10° NNE visible
15 Dec 5.6 04:24:25 13° N 04:24:25 13° N 04:26:00 10° NNE visible
15 Dec 5.5 06:13:09 10° NNW 06:16:16 13° N 06:19:38 10° NE visible
16 Dec 6.0 03:40:49 11° NNE 03:40:49 11° NNE 03:41:02 10° NNE visible
16 Dec 5.5 05:28:14 11° NNW 05:30:19 12° N 05:33:07 10° NNE visible
17 Dec 5.6 04:44:37 13° N 04:44:37 13° N 04:47:12 10° NNE visible
17 Dec 5.6 06:33:57 10° NNW 06:38:23 18° NNE 06:43:21 10° ENE visible
18 Dec 5.9 04:01:00 12° N 04:01:00 12° N 04:01:50 10° NNE visible
18 Dec 5.6 05:49:00 10° NNW 05:52:33 15° NNE 05:56:27 10° NE visible
